TimeEDT,TemperatureF,Dew PointF,Humidity,Sea Level PressureIn,VisibilityMPH,Wind Direction,Wind SpeedMPH,Gust SpeedMPH,PrecipitationIn,Events,Conditions,WindDirDegrees,DateUTC
12:53 AM,75.9,71.1,85,30.15,10.0,SW,4.6,-,N/A,,Clear,220,2012-08-05 04:53:00
1:53 AM,77.0,70.0,79,30.15,10.0,SSW,8.1,-,N/A,,Clear,200,2012-08-05 05:53:00
2:53 AM,75.9,69.1,79,30.12,10.0,South,8.1,-,N/A,,Clear,190,2012-08-05 06:53:00
3:53 AM,75.9,69.1,79,30.13,10.0,SW,4.6,-,N/A,,Clear,220,2012-08-05 07:53:00
4:53 AM,75.0,69.1,82,30.12,10.0,South,10.4,-,N/A,,Clear,190,2012-08-05 08:53:00
5:53 AM,73.9,69.1,85,30.12,10.0,South,9.2,-,N/A,,Clear,190,2012-08-05 09:53:00
6:53 AM,73.0,70.0,90,30.13,10.0,South,6.9,-,N/A,,Clear,170,2012-08-05 10:53:00
7:53 AM,75.0,70.0,84,30.14,10.0,South,6.9,-,N/A,,Clear,190,2012-08-05 11:53:00
8:53 AM,75.9,71.1,85,30.15,10.0,South,10.4,-,N/A,,Mostly Cloudy,180,2012-08-05 12:53:00
9:53 AM,80.1,72.0,76,30.15,10.0,SSW,9.2,-,N/A,,Clear,210,2012-08-05 13:53:00
10:53 AM,82.0,72.0,71,30.16,10.0,SSW,9.2,-,N/A,,Mostly Cloudy,210,2012-08-05 14:53:00
11:53 AM,84.2,73.4,70,30.16,10.0,South,18.4,21.9,N/A,,Partly Cloudy,180,2012-08-05 15:53:00
12:53 PM,86.0,73.0,65,30.12,10.0,SSW,13.8,21.9,N/A,,Clear,200,2012-08-05 16:53:00
1:53 PM,88.0,72.0,59,30.09,10.0,SSW,12.7,19.6,N/A,,Clear,200,2012-08-05 17:53:00
2:53 PM,89.1,71.1,55,30.06,10.0,SSW,13.8,20.7,N/A,,Partly Cloudy,200,2012-08-05 18:53:00
3:53 PM,89.1,71.1,55,30.05,10.0,SSW,12.7,21.9,N/A,,Partly Cloudy,200,2012-08-05 19:53:00
4:53 PM,89.1,69.1,52,30.04,10.0,SSW,16.1,25.3,N/A,,Scattered Clouds,200,2012-08-05 20:53:00
5:53 PM,84.0,71.1,65,30.05,9.0,SW,4.6,-,0.00,Rain,Light Rain,230,2012-08-05 21:53:00
6:53 PM,81.0,73.0,77,30.04,10.0,Calm,Calm,-,0.02,,Clear,0,2012-08-05 22:53:00
7:53 PM,80.1,72.0,76,30.04,10.0,SW,3.5,-,0.00,Rain,Light Rain,220,2012-08-05 23:53:00
8:53 PM,79.0,72.0,79,30.06,10.0,Calm,Calm,-,0.00,,Mostly Cloudy,0,2012-08-06 00:53:00
9:53 PM,79.0,72.0,79,30.07,10.0,Calm,Calm,-,N/A,,Mostly Cloudy,0,2012-08-06 01:53:00
10:53 PM,78.1,71.1,79,30.09,10.0,Calm,Calm,-,N/A,,Mostly Cloudy,0,2012-08-06 02:53:00
11:53 PM,79.0,69.1,72,30.06,10.0,Variable,6.9,-,N/A,,Mostly Cloudy,0,2012-08-06 03:53:00